AAN107 LEIB-LECH

Flight info

Callsign AAN107
Flight time 0h 51m
Altitude 4500
Route VFR
Aircraft BE58/L-SDFGRY/C

Departure

Time 2026-04-23 16:09
Airport Ibiza Airport (LEIB)

Arrival

Time 2026-04-23 17:00
Airport Castellón-Costa Azahar Airport (LECH)
Time Latitude Longitude Altitude Speed Heading
2026-04-23 15:46 38.87904 1.37715 23 ft 0 kts 242°
2026-04-23 16:01 38.87904 1.37713 23 ft 1 kts 242°
2026-04-23 16:02 38.87889 1.37687 23 ft 5 kts 233°
2026-04-23 16:02 38.87862 1.37677 23 ft 6 kts 153°
2026-04-23 16:02 38.87818 1.37709 23 ft 6 kts 149°
2026-04-23 16:02 38.87778 1.37671 23 ft 11 kts 243°
2026-04-23 16:03 38.87735 1.37570 23 ft 15 kts 242°
2026-04-23 16:03 38.87699 1.37459 23 ft 12 kts 278°
2026-04-23 16:03 38.87664 1.37339 23 ft 17 kts 243°
2026-04-23 16:03 38.87607 1.37201 23 ft 19 kts 243°
2026-04-23 16:04 38.87539 1.37040 23 ft 21 kts 240°
2026-04-23 16:04 38.87477 1.36887 23 ft 15 kts 245°
2026-04-23 16:04 38.87430 1.36796 23 ft 12 kts 208°
2026-04-23 16:04 38.87343 1.36827 23 ft 15 kts 149°
2026-04-23 16:05 38.87291 1.36855 23 ft 13 kts 197°
2026-04-23 16:05 38.87216 1.36701 23 ft 18 kts 241°
2026-04-23 16:05 38.87150 1.36539 23 ft 23 kts 246°
2026-04-23 16:05 38.87074 1.36351 23 ft 23 kts 240°
2026-04-23 16:06 38.87002 1.36220 23 ft 15 kts 191°
2026-04-23 16:06 38.86947 1.36239 23 ft 0 kts 148°
2026-04-23 16:08 38.86912 1.36261 23 ft 9 kts 158°
2026-04-23 16:08 38.86886 1.36347 22 ft 15 kts 67°
2026-04-23 16:08 38.86964 1.36545 23 ft 50 kts 64°
2026-04-23 16:09 38.87228 1.37157 58 ft 99 kts 62°
2026-04-23 16:09 38.87575 1.37959 458 ft 101 kts 64°
2026-04-23 16:09 38.87866 1.38872 795 ft 120 kts 70°
2026-04-23 16:09 38.88117 1.39964 1014 ft 138 kts 86°
2026-04-23 16:10 38.87707 1.41112 1184 ft 157 kts 139°
2026-04-23 16:10 38.86654 1.41486 1511 ft 159 kts 177°
2026-04-23 16:10 38.85653 1.40943 1817 ft 171 kts 222°
2026-04-23 16:10 38.85327 1.39454 1673 ft 190 kts 288°
2026-04-23 16:11 38.86146 1.38116 1232 ft 197 kts 334°
2026-04-23 16:11 38.87310 1.37387 1270 ft 173 kts 342°
2026-04-23 16:11 38.88371 1.36784 1245 ft 159 kts 341°
2026-04-23 16:11 38.89283 1.36111 1329 ft 143 kts 334°
2026-04-23 16:12 38.90106 1.35381 1502 ft 147 kts 332°
2026-04-23 16:12 38.90966 1.34600 1719 ft 156 kts 333°
2026-04-23 16:12 38.91883 1.33822 1866 ft 159 kts 336°
2026-04-23 16:12 38.92851 1.33152 2031 ft 159 kts 342°
2026-04-23 16:13 38.93854 1.32563 2192 ft 159 kts 343°
2026-04-23 16:13 38.95934 1.31422 2431 ft 171 kts 342°
2026-04-23 16:13 38.97042 1.30781 2480 ft 178 kts 340°
2026-04-23 16:14 38.98185 1.30099 2500 ft 184 kts 340°
2026-04-23 16:14 38.99367 1.29405 2527 ft 189 kts 340°
2026-04-23 16:14 39.00583 1.28712 2547 ft 191 kts 341°
2026-04-23 16:14 39.01792 1.28034 2524 ft 189 kts 342°
2026-04-23 16:15 39.02988 1.27359 2512 ft 187 kts 341°
2026-04-23 16:15 39.03760 1.26870 2507 ft 188 kts 332°
2026-04-23 16:15 39.04832 1.25905 2501 ft 188 kts 328°
2026-04-23 16:15 39.05867 1.24886 2500 ft 187 kts 326°
2026-04-23 16:16 39.06891 1.23856 2499 ft 187 kts 327°
2026-04-23 16:16 39.07940 1.22863 2504 ft 187 kts 329°
2026-04-23 16:16 39.09021 1.21914 2506 ft 190 kts 331°
2026-04-23 16:16 39.10141 1.20974 2505 ft 193 kts 331°
2026-04-23 16:17 39.11275 1.20015 2506 ft 196 kts 330°
2026-04-23 16:17 39.12413 1.19029 2506 ft 198 kts 330°
2026-04-23 16:17 39.13553 1.18023 2511 ft 199 kts 329°
2026-04-23 16:17 39.14698 1.17014 2519 ft 200 kts 330°
2026-04-23 16:18 39.15855 1.16008 2515 ft 200 kts 330°
2026-04-23 16:18 39.17012 1.15011 2512 ft 200 kts 330°
2026-04-23 16:18 39.18168 1.14018 2513 ft 200 kts 330°
2026-04-23 16:18 39.19307 1.13031 2514 ft 200 kts 330°
2026-04-23 16:19 39.20455 1.12027 2518 ft 199 kts 329°
2026-04-23 16:19 39.21569 1.11046 2729 ft 188 kts 329°
2026-04-23 16:19 39.22632 1.10117 2954 ft 181 kts 329°
2026-04-23 16:19 39.23661 1.09226 3177 ft 175 kts 329°
2026-04-23 16:20 39.24673 1.08349 3401 ft 176 kts 329°
2026-04-23 16:20 39.25692 1.07467 3627 ft 176 kts 329°
2026-04-23 16:20 39.26710 1.06581 3844 ft 176 kts 329°
2026-04-23 16:20 39.27718 1.05701 4055 ft 174 kts 328°
2026-04-23 16:21 39.28702 1.04834 4277 ft 173 kts 327°
2026-04-23 16:21 39.29713 1.03946 4414 ft 179 kts 328°
2026-04-23 16:21 39.30765 1.03025 4474 ft 186 kts 328°
2026-04-23 16:21 39.31853 1.02082 4504 ft 190 kts 328°
2026-04-23 16:22 39.32955 1.01126 4516 ft 191 kts 327°
2026-04-23 16:22 39.34061 1.00158 4518 ft 192 kts 327°
2026-04-23 16:22 39.35169 0.99185 4524 ft 193 kts 327°
2026-04-23 16:22 39.36281 0.98210 4527 ft 193 kts 327°
2026-04-23 16:23 39.37398 0.97232 4536 ft 195 kts 327°
2026-04-23 16:23 39.38526 0.96253 4536 ft 196 kts 327°
2026-04-23 16:23 39.39657 0.95265 4529 ft 196 kts 326°
2026-04-23 16:23 39.40782 0.94271 4531 ft 196 kts 326°
2026-04-23 16:24 39.41909 0.93278 4531 ft 196 kts 327°
2026-04-23 16:24 39.43039 0.92289 4531 ft 196 kts 326°
2026-04-23 16:24 39.44168 0.91304 4536 ft 196 kts 326°
2026-04-23 16:24 39.45282 0.90328 4538 ft 196 kts 326°
2026-04-23 16:25 39.46417 0.89333 4533 ft 196 kts 326°
2026-04-23 16:25 39.47544 0.88341 4534 ft 195 kts 326°
2026-04-23 16:25 39.48666 0.87351 4535 ft 195 kts 326°
2026-04-23 16:25 39.49792 0.86362 4538 ft 196 kts 326°
2026-04-23 16:26 39.50922 0.85371 4534 ft 196 kts 326°
2026-04-23 16:26 39.52035 0.84392 4525 ft 197 kts 326°
2026-04-23 16:26 39.53167 0.83398 4509 ft 196 kts 326°
2026-04-23 16:26 39.54298 0.82400 4502 ft 196 kts 326°
2026-04-23 16:27 39.55424 0.81405 4504 ft 195 kts 326°
2026-04-23 16:27 39.56547 0.80419 4502 ft 195 kts 326°
2026-04-23 16:27 39.57671 0.79431 4502 ft 194 kts 326°
2026-04-23 16:27 39.58774 0.78457 4497 ft 194 kts 326°
2026-04-23 16:28 39.59899 0.77464 4501 ft 193 kts 325°
2026-04-23 16:28 39.60997 0.76493 4507 ft 193 kts 326°
2026-04-23 16:28 39.62107 0.75514 4509 ft 193 kts 325°
2026-04-23 16:28 39.63218 0.74532 4507 ft 193 kts 325°
2026-04-23 16:29 39.64329 0.73552 4501 ft 193 kts 325°
2026-04-23 16:29 39.65437 0.72574 4509 ft 192 kts 325°
2026-04-23 16:29 39.66544 0.71595 4506 ft 192 kts 325°
2026-04-23 16:29 39.67648 0.70620 4505 ft 192 kts 325°
2026-04-23 16:30 39.68751 0.69641 4509 ft 192 kts 325°
2026-04-23 16:30 39.69840 0.68672 4507 ft 192 kts 325°
2026-04-23 16:30 39.70941 0.67699 4508 ft 191 kts 325°
2026-04-23 16:30 39.72042 0.66726 4511 ft 191 kts 325°
2026-04-23 16:31 39.73143 0.65756 4514 ft 191 kts 325°
2026-04-23 16:31 39.74249 0.64781 4516 ft 192 kts 324°
2026-04-23 16:31 39.75349 0.63797 4514 ft 192 kts 324°
2026-04-23 16:31 39.76447 0.62812 4516 ft 192 kts 324°
2026-04-23 16:32 39.77551 0.61831 4516 ft 192 kts 325°
2026-04-23 16:32 39.78661 0.60856 4500 ft 193 kts 325°
2026-04-23 16:32 39.79768 0.59878 4418 ft 197 kts 324°
2026-04-23 16:32 39.80904 0.58867 4316 ft 199 kts 324°
2026-04-23 16:33 39.82049 0.57841 4215 ft 200 kts 324°
2026-04-23 16:33 39.83202 0.56815 4119 ft 201 kts 325°
2026-04-23 16:33 39.84355 0.55790 4019 ft 201 kts 325°
2026-04-23 16:33 39.85512 0.54764 3921 ft 201 kts 325°
2026-04-23 16:34 39.86668 0.53735 3821 ft 201 kts 325°
2026-04-23 16:34 39.87825 0.52706 3722 ft 201 kts 325°
2026-04-23 16:34 39.88981 0.51672 3629 ft 201 kts 325°
2026-04-23 16:34 39.90120 0.50652 3532 ft 201 kts 325°
2026-04-23 16:35 39.91273 0.49625 3436 ft 201 kts 326°
2026-04-23 16:35 39.92432 0.48596 3339 ft 201 kts 326°
2026-04-23 16:35 39.93582 0.47570 3235 ft 200 kts 326°
2026-04-23 16:35 39.94714 0.46555 3138 ft 195 kts 326°
2026-04-23 16:36 39.95828 0.45558 3039 ft 193 kts 326°
2026-04-23 16:36 39.96923 0.44581 2941 ft 192 kts 326°
2026-04-23 16:36 39.98021 0.43596 2846 ft 191 kts 327°
2026-04-23 16:36 39.99122 0.42618 2754 ft 192 kts 327°
2026-04-23 16:37 40.00227 0.41628 2659 ft 192 kts 327°
2026-04-23 16:37 40.01331 0.40640 2566 ft 192 kts 327°
2026-04-23 16:37 40.02437 0.39651 2473 ft 193 kts 327°
2026-04-23 16:37 40.03548 0.38654 2366 ft 194 kts 327°
2026-04-23 16:38 40.04645 0.37660 2270 ft 194 kts 327°
2026-04-23 16:38 40.05763 0.36657 2166 ft 195 kts 328°
2026-04-23 16:38 40.06886 0.35660 2086 ft 194 kts 328°
2026-04-23 16:38 40.07996 0.34670 2045 ft 192 kts 328°
2026-04-23 16:39 40.09091 0.33686 2024 ft 190 kts 327°
2026-04-23 16:39 40.10170 0.32708 2000 ft 187 kts 327°
2026-04-23 16:39 40.11237 0.31746 2006 ft 184 kts 328°
2026-04-23 16:39 40.12281 0.30811 2007 ft 180 kts 328°
2026-04-23 16:40 40.13311 0.29895 2005 ft 178 kts 328°
2026-04-23 16:40 40.14326 0.28982 1992 ft 176 kts 327°
2026-04-23 16:40 40.15321 0.28073 1993 ft 173 kts 327°
2026-04-23 16:40 40.16307 0.27180 2008 ft 172 kts 327°
2026-04-23 16:41 40.17281 0.26309 2014 ft 172 kts 329°
2026-04-23 16:41 40.18273 0.25422 2018 ft 173 kts 328°
2026-04-23 16:41 40.19270 0.24534 1997 ft 173 kts 328°
2026-04-23 16:41 40.20256 0.23641 1997 ft 171 kts 327°
2026-04-23 16:42 40.21223 0.22757 2006 ft 168 kts 328°
2026-04-23 16:42 40.22192 0.21929 2004 ft 165 kts 339°
2026-04-23 16:42 40.23278 0.21904 2016 ft 158 kts 28°
2026-04-23 16:42 40.23975 0.22925 2012 ft 154 kts 75°
2026-04-23 16:43 40.23946 0.24322 2026 ft 155 kts 97°
2026-04-23 16:43 40.23805 0.25730 2030 ft 157 kts 96°
2026-04-23 16:43 40.23702 0.27162 2023 ft 159 kts 93°
2026-04-23 16:43 40.23550 0.28586 2008 ft 159 kts 113°
2026-04-23 16:44 40.22736 0.29521 2005 ft 163 kts 161°
2026-04-23 16:44 40.21620 0.29356 2006 ft 168 kts 207°
2026-04-23 16:44 40.20810 0.28265 2008 ft 171 kts 232°
2026-04-23 16:44 40.20208 0.26930 1996 ft 172 kts 256°
2026-04-23 16:45 40.20206 0.25406 1987 ft 168 kts 292°
2026-04-23 16:45 40.20904 0.24207 2012 ft 166 kts 325°
2026-04-23 16:45 40.21975 0.23834 2008 ft 161 kts 11°
2026-04-23 16:45 40.22864 0.24601 2009 ft 155 kts 60°
2026-04-23 16:46 40.23160 0.25950 2017 ft 155 kts 80°
2026-04-23 16:46 40.23322 0.27364 2018 ft 158 kts 84°
2026-04-23 16:46 40.23433 0.28798 2008 ft 159 kts 85°
2026-04-23 16:46 40.23522 0.30236 2004 ft 159 kts 85°
2026-04-23 16:47 40.23599 0.31659 2004 ft 159 kts 92°
2026-04-23 16:47 40.23138 0.32921 2003 ft 159 kts 140°
2026-04-23 16:47 40.22089 0.33284 2009 ft 163 kts 189°
2026-04-23 16:47 40.21129 0.32507 2012 ft 167 kts 227°
2026-04-23 16:48 40.20595 0.31166 2010 ft 170 kts 261°
2026-04-23 16:48 40.20590 0.29627 1996 ft 170 kts 288°
2026-04-23 16:48 40.21065 0.28206 2016 ft 172 kts 292°
2026-04-23 16:48 40.21480 0.26737 2002 ft 172 kts 290°
2026-04-23 16:49 40.21733 0.25752 2000 ft 172 kts 290°
2026-04-23 16:49 40.22226 0.23777 1999 ft 172 kts 289°
2026-04-23 16:49 40.22740 0.22403 1998 ft 168 kts 315°
2026-04-23 16:49 40.23578 0.21336 2010 ft 168 kts 319°
2026-04-23 16:50 40.24444 0.20304 2002 ft 168 kts 319°
2026-04-23 16:50 40.25095 0.19049 1984 ft 167 kts 294°
2026-04-23 16:50 40.25489 0.17617 1988 ft 167 kts 290°
2026-04-23 16:50 40.25842 0.16167 2007 ft 168 kts 288°
2026-04-23 16:51 40.26371 0.14834 2007 ft 165 kts 320°
2026-04-23 16:51 40.27406 0.14363 2019 ft 159 kts
2026-04-23 16:51 40.28321 0.15028 2001 ft 154 kts 56°
2026-04-23 16:51 40.28588 0.16376 2025 ft 156 kts 86°
2026-04-23 16:52 40.28607 0.17800 2015 ft 157 kts 89°
2026-04-23 16:52 40.28582 0.19225 2025 ft 156 kts 91°
2026-04-23 16:52 40.28545 0.20651 2035 ft 157 kts 94°
2026-04-23 16:52 40.28092 0.21922 2029 ft 160 kts 138°
2026-04-23 16:53 40.27038 0.22327 2019 ft 165 kts 186°
2026-04-23 16:53 40.26067 0.21587 2004 ft 169 kts 232°
2026-04-23 16:53 40.25716 0.20141 2003 ft 169 kts 265°
2026-04-23 16:53 40.25654 0.18606 1991 ft 168 kts 269°
2026-04-23 16:54 40.25634 0.17081 1987 ft 167 kts 270°
2026-04-23 16:54 40.25640 0.15564 1996 ft 166 kts 271°
2026-04-23 16:54 40.25651 0.14041 1998 ft 167 kts 272°
2026-04-23 16:54 40.25668 0.12528 2009 ft 169 kts 271°
2026-04-23 16:55 40.25694 0.10980 2017 ft 171 kts 271°
2026-04-23 16:55 40.25713 0.09419 2005 ft 172 kts 272°
2026-04-23 16:55 40.25567 0.07871 1997 ft 173 kts 244°
2026-04-23 16:55 40.24732 0.06789 1989 ft 170 kts 207°
2026-04-23 16:56 40.23676 0.06098 2013 ft 170 kts 203°
2026-04-23 16:56 40.22592 0.05472 2029 ft 171 kts 201°
2026-04-23 16:56 40.21869 0.05058 2027 ft 172 kts 206°
2026-04-23 16:56 40.20567 0.03820 2028 ft 175 kts 224°
2026-04-23 16:57 40.19795 0.02612 2008 ft 175 kts 233°
2026-04-23 16:57 40.19073 0.01334 2014 ft 174 kts 234°
2026-04-23 16:57 40.18376 0.00041 2008 ft 173 kts 234°
2026-04-23 16:57 40.17560 -0.01085 2005 ft 171 kts 204°
2026-04-23 16:58 40.16427 -0.01234 2009 ft 164 kts 159°
2026-04-23 16:58 40.15619 -0.00305 2003 ft 156 kts 111°
2026-04-23 16:58 40.15658 0.01059 2029 ft 156 kts 63°
2026-04-23 16:58 40.16488 0.01938 2018 ft 159 kts 25°
2026-04-23 16:59 40.17515 0.02462 1995 ft 157 kts 22°
2026-04-23 16:59 40.18501 0.02895 2030 ft 138 kts 18°
2026-04-23 16:59 40.19363 0.03232 1777 ft 122 kts 30°
2026-04-23 16:59 40.19821 0.03983 1532 ft 96 kts 65°
2026-04-23 17:00 40.20107 0.04710 1318 ft 91 kts 60°
2026-04-23 17:00 40.20453 0.05387 1183 ft 89 kts 59°
2026-04-23 17:00 40.20784 0.06068 1117 ft 89 kts 56°
2026-04-23 17:00 40.21059 0.06631 1112 ft 43 kts 60°
2026-04-23 17:01 40.21143 0.06825 1116 ft 22 kts 67°
2026-04-23 17:01 40.21155 0.06798 1117 ft 16 kts 232°
2026-04-23 17:01 40.21057 0.06647 1112 ft 28 kts 229°
2026-04-23 17:01 40.20932 0.06386 1102 ft 36 kts 239°
2026-04-23 17:02 40.20860 0.06230 1097 ft 25 kts 241°
2026-04-23 17:02 40.20729 0.06080 1097 ft 16 kts 168°
2026-04-23 17:02 40.20646 0.06180 1096 ft 19 kts 86°
2026-04-23 17:02 40.20670 0.06265 1096 ft 0 kts 55°
2026-04-23 17:03 40.20671 0.06266 1096 ft 1 kts 55°
2026-04-23 17:03 40.20688 0.06298 1096 ft 8 kts 54°
2026-04-23 17:03 40.20688 0.06395 1096 ft 15 kts 136°
2026-04-23 17:03 40.20650 0.06436 1096 ft 0 kts 129°
2026-04-23 17:04 40.20645 0.06446 1096 ft 5 kts 128°
2026-04-23 17:04 40.20653 0.06522 1096 ft 13 kts 58°
2026-04-23 17:04 40.20705 0.06631 1096 ft 10 kts 58°
2026-04-23 17:04 40.20715 0.06651 1096 ft 0 kts 55°
2026-04-23 17:05 40.20720 0.06662 1096 ft 6 kts 57°
2026-04-23 17:05 40.20747 0.06721 1096 ft 5 kts 76°
2026-04-23 17:05 40.20714 0.06769 1096 ft 7 kts 143°
2026-04-23 17:05 40.20702 0.06806 1096 ft 6 kts 73°
2026-04-23 17:06 40.20708 0.06820 1096 ft 0 kts
2026-04-23 17:06 40.20711 0.06816 1096 ft 0 kts 235°